RH
14 16 15 13 11 11 11 11 11 13 15 16 16 18 19 21 24 25 23 20 20 21 21 19 17 16 16 15 14 13 13 17 18 16 21 26 26 26 26 28 32 35 37 37 39 42 43 46 50 55 58 54 53 53 52 49 46 44 39 37 41 47 50 51 58 64 68 77 84 84 86 86 83 80 75 71 71 70 68 66 63 66 71 74 74 73
17 19 17 12 10 10 10 13 13 13 17 18 17 18 18 21 28 31 26 24 24 25 25 21 20 19 18 17 15 13 13 15 15 14 18 25 26 26 26 25 27 32 35 37 40 42 43 44 45 48 54 55 52 51 49 46 43 41 39 36 38 46 52 53 59 69 77 85 90 92 90 86 86 84 76 71 72 72 70 68 67 68 70 73 76 74
20 19 15 10 10 11 11 14 16 15 16 19 18 18 19 21 30 32 27 25 25 25 26 23 23 23 20 18 17 14 14 14 13 12 16 23 25 26 26 24 24 27 31 34 36 39 41 43 42 42 45 48 48 47 45 42 38 35 36 37 38 47 52 52 60 72 83 91 93 95 94 90 87 85 79 73 73 72 70 71 72 71 72 74 74 73
21 17 15 14 14 15 14 17 19 17 18 20 20 21 21 21 29 32 28 25 23 25 26 24 25 26 21 19 18 16 15 14 14 12 13 18 22 24 24 22 22 23 25 29 32 35 39 41 41 40 40 42 44 45 44 41 38 37 38 40 41 47 50 51 62 71 79 89 93 93 93 91 87 84 80 76 75 73 71 74 75 73 72 74 73 73
21 19 20 22 21 19 18 19 20 20 21 24 24 24 23 22 26 30 28 25 24 28 29 27 29 29 24 21 20 18 16 15 15 15 14 16 20 23 24 24 22 21 21 25 29 33 36 38 40 41 41 42 43 46 45 40 38 39 40 40 41 45 48 51 61 69 76 87 92 90 88 90 90 86 81 78 76 74 73 76 77 73 72 73 73 73
21 25 27 27 24 20 18 18 21 22 22 24 25 24 22 21 24 26 25 24 26 28 26 24 29 33 28 23 22 20 17 18 19 19 18 18 22 26 28 25 23 22 21 22 26 30 32 34 38 43 43 40 40 45 45 42 41 41 41 40 40 44 47 52 60 65 73 85 91 91 87 90 93 87 81 80 79 76 74 77 77 72 71 71 72 72
22 26 28 27 25 22 20 18 20 23 21 22 22 21 19 18 19 22 23 22 22 25 23 24 30 35 31 25 23 21 18 21 23 21 21 24 28 30 28 25 27 29 27 26 32 35 35 36 37 38 37 35 40 45 43 40 41 41 43 43 42 44 45 50 58 61 68 80 88 92 89 91 96 89 83 83 82 79 76 76 75 71 70 70 70 71
22 25 27 25 24 22 23 20 19 21 23 22 19 16 17 18 17 18 18 17 18 19 21 26 30 29 27 25 22 19 20 28 33 29 31 34 33 34 32 28 28 32 35 37 40 41 42 46 48 43 37 35 42 46 40 37 39 42 47 47 44 45 45 48 56 60 65 73 80 84 83 86 93 89 83 83 83 81 78 76 74 69 69 68 67 69
23 24 25 24 24 23 23 22 20 20 22 21 17 16 19 19 21 20 17 17 19 18 21 27 28 25 24 24 21 21 24 35 42 39 41 41 36 38 40 35 30 33 40 42 42 43 43 47 51 51 50 49 49 48 42 37 39 47 53 51 45 45 46 48 52 58 64 68 73 79 78 79 86 85 82 83 83 82 80 76 73 69 68 67 66 68
24 24 24 24 23 22 22 22 22 22 22 20 17 19 20 19 24 24 21 20 21 23 24 25 25 23 23 23 23 29 35 41 44 41 41 43 42 44 46 44 39 38 44 47 47 47 42 39 44 47 51 54 52 49 47 41 40 48 57 56 50 46 46 47 49 54 59 59 64 74 77 76 79 80 80 81 80 81 80 76 72 71 70 67 67 68
23 25 27 27 24 22 22 23 23 22 21 19 18 20 21 22 26 26 23 22 23 29 27 21 22 22 24 28 29 35 43 46 46 43 42 43 45 47 47 50 48 43 47 52 53 52 46 44 46 45 45 48 50 51 52 51 49 52 60 65 59 49 45 46 48 51 54 55 59 67 72 74 73 73 76 77 77 78 77 74 72 72 71 67 66 66
22 25 28 29 28 25 24 24 24 21 19 18 19 21 23 26 28 25 24 23 26 32 25 17 20 20 25 35 37 39 45 47 45 44 46 46 47 47 47 50 51 49 51 53 56 57 52 49 49 49 47 46 48 51 55 59 60 62 68 69 62 56 53 51 50 50 49 52 58 63 68 70 70 70 71 72 74 74 71 71 72 73 70 65 62 62
22 25 26 29 31 27 25 26 25 22 20 19 21 23 26 29 29 29 29 28 28 28 23 20 22 26 36 43 43 45 47 45 44 44 46 48 49 50 49 49 51 53 56 59 62 61 56 52 50 51 51 47 47 53 57 60 62 66 74 73 65 62 60 58 57 54 51 51 56 62 66 68 70 71 71 72 73 70 68 69 71 72 69 64 61 61
26 28 25 27 28 25 25 26 26 25 22 22 22 24 28 29 30 33 32 30 29 26 26 29 29 36 49 50 47 51 49 43 46 48 49 50 51 53 52 50 51 54 57 61 64 62 59 60 57 55 56 55 57 61 63 65 64 64 69 72 68 64 64 65 63 57 54 52 52 59 64 65 69 72 72 72 73 70 68 69 70 70 67 64 63 61
35 36 30 27 25 24 27 25 24 25 24 25 24 25 29 28 28 31 30 31 35 35 35 36 36 43 53 54 52 54 51 47 50 53 52 53 53 53 53 51 51 53 53 57 59 59 62 65 64 64 64 64 65 66 68 74 76 69 63 63 63 61 62 64 61 56 55 53 52 56 62 63 66 71 73 71 71 72 70 69 70 69 67 67 67 62
34 35 32 30 26 25 31 29 23 24 28 30 28 27 29 29 26 26 29 32 36 43 43 39 44 49 51 57 58 56 57 55 55 56 54 55 55 54 55 53 52 54 56 59 60 57 58 62 63 66 68 66 65 66 68 74 79 72 60 57 58 56 57 59 58 55 55 55 55 56 60 64 65 68 73 72 70 72 71 69 70 67 66 70 69 63
35 36 31 32 33 30 32 33 27 24 30 34 34 33 33 30 28 27 31 33 34 43 43 38 50 57 54 60 62 60 62 60 58 61 60 61 61 59 58 56 56 59 61 63 63 59 57 59 61 65 69 69 69 70 69 71 76 70 59 58 59 56 56 58 56 54 54 56 58 56 59 66 66 66 70 71 70 72 72 71 70 67 67 70 67 61
40 43 38 35 40 39 35 35 31 25 28 35 38 41 39 34 30 27 34 39 39 44 41 37 51 60 58 64 64 62 67 68 66 68 68 69 68 65 62 61 63 64 63 63 63 63 63 64 66 68 69 69 70 72 72 73 75 71 65 66 65 63 64 64 59 56 55 57 59 59 60 66 67 66 69 72 72 72 71 72 72 70 69 68 64 62
37 42 43 37 41 46 40 39 38 29 26 31 37 40 43 44 40 31 33 39 43 47 42 42 56 63 63 70 70 67 71 73 73 72 70 71 71 70 67 64 64 64 63 62 61 64 68 71 74 74 73 71 69 70 72 73 73 71 70 71 70 70 74 74 68 62 59 58 58 60 62 65 68 67 69 73 74 72 71 72 74 73 71 66 65 68
40 42 44 38 39 46 44 42 45 39 31 30 34 37 40 46 47 42 38 39 43 46 43 48 64 72 73 77 78 77 75 73 73 72 68 68 71 75 74 70 66 65 66 66 66 70 71 70 73 76 75 73 71 72 73 73 72 72 71 71 72 75 81 85 82 73 65 61 59 59 60 63 67 67 67 71 75 74 73 74 76 76 71 67 67 70
42 43 46 44 42 45 46 45 46 45 40 37 36 36 36 40 44 45 45 42 42 48 50 57 70 75 74 76 78 80 78 73 71 71 68 69 72 75 77 77 74 71 72 72 73 77 75 71 72 73 73 72 72 74 75 74 72 72 72 71 72 74 76 82 85 77 67 63 61 61 61 63 67 66 65 69 74 76 75 77 79 77 72 70 69 68
41 42 47 51 48 47 47 46 43 43 46 48 47 44 41 41 41 44 49 47 42 47 55 64 78 84 79 75 75 78 79 75 71 68 67 71 75 76 79 82 78 73 74 75 74 74 76 76 76 77 77 75 73 73 74 73 71 68 71 71 71 70 68 68 69 66 63 62 62 63 65 67 67 66 65 67 71 76 77 79 81 77 72 72 69 64
46 47 49 51 49 47 47 47 46 47 49 53 55 52 50 49 46 47 54 55 50 53 56 62 79 91 86 77 77 80 80 75 69 67 68 70 74 77 79 80 75 71 72 73 70 69 72 74 75 77 78 76 74 74 74 76 74 69 70 70 68 70 70 67 65 67 68 69 67 66 67 68 68 66 66 65 67 74 80 81 79 75 72 73 68 62
51 52 50 48 48 49 50 49 50 52 52 57 61 57 56 58 55 50 51 54 59 62 62 66 80 90 87 81 79 79 77 72 70 70 69 69 72 73 72 71 71 72 72 71 69 67 68 69 69 70 72 73 73 72 74 79 75 69 68 68 66 67 68 68 68 72 76 76 74 71 68 67 66 66 66 65 64 72 81 82 78 75 74 73 67 63
57 57 53 51 53 57 59 60 62 61 60 64 66 62 59 60 59 56 50 52 62 62 59 69 83 90 89 85 82 80 77 74 72 70 68 68 71 71 67 66 68 72 74 74 73 70 68 68 68 67 67 69 70 69 72 74 69 65 66 67 66 65 65 67 69 71 74 76 77 76 74 72 69 66 68 70 70 71 76 79 77 76 75 72 68 70
63 65 62 60 63 67 69 71 76 76 73 72 70 65 62 61 60 61 58 60 66 62 62 73 84 90 90 87 84 81 76 73 70 68 68 67 67 67 65 66 67 68 71 74 74 74 72 71 70 68 67 69 70 70 70 67 63 62 64 64 64 64 65 68 70 71 73 75 76 79 80 78 74 72 74 79 79 73 73 76 76 75 75 72 72 77
67 72 72 69 69 70 71 73 75 78 80 80 75 69 67 66 64 64 67 71 72 70 74 78 77 83 89 86 83 82 78 74 72 70 68 65 63 64 65 67 67 67 68 70 71 72 73 72 71 70 68 67 69 69 68 65 60 57 58 60 60 61 63 65 68 70 73 73 73 74 75 74 75 77 79 85 86 77 73 75 75 75 76 76 77 80
73 79 78 75 71 67 65 68 74 78 80 80 80 77 73 73 72 69 73 77 74 73 82 84 78 79 87 87 86 85 81 77 77 75 70 67 64 64 66 69 70 68 68 69 69 69 70 72 71 71 69 67 66 67 67 67 63 58 57 59 59 60 62 64 67 69 73 75 76 75 72 72 77 80 83 88 90 81 73 73 76 75 77 80 82 82
82 84 82 79 77 73 68 68 73 79 79 78 81 83 80 78 76 74 77 79 76 76 83 90 87 83 86 88 86 85 81 79 80 79 74 69 67 68 72 72 70 69 69 69 68 68 68 68 69 69 69 68 67 68 68 67 66 63 61 60 60 60 62 65 67 68 70 74 79 79 75 74 81 86 88 90 89 84 77 75 75 75 75 79 83 84
82 83 83 81 81 79 77 75 72 73 76 77 80 85 85 83 80 77 79 79 79 82 86 90 91 87 85 85 84 82 81 81 81 79 73 71 70 71 73 73 70 70 70 71 71 70 70 69 68 66 66 65 65 66 66 66 66 64 64 64 63 62 62 64 66 67 69 73 79 83 82 82 86 91 93 90 88 88 83 78 77 77 76 76 79 84
75 77 78 76 77 81 82 80 77 75 75 76 80 83 84 85 83 81 82 80 80 84 86 87 89 89 87 84 82 81 81 81 80 76 74 74 74 73 72 72 73 73 73 74 74 73 71 70 69 68 66 65 65 64 64 64 63 62 62 63 64 65 66 67 68 69 69 73 78 81 84 87 90 94 94 91 90 90 86 81 80 79 78 76 77 83
68 71 71 67 71 80 81 79 81 80 77 78 82 83 83 84 85 84 84 84 84 86 84 85 90 92 89 85 82 80 79 79 78 76 76 77 77 76 75 74 74 75 74 75 75 74 73 72 71 70 69 68 67 65 64 63 63 63 64 63 64 67 68 68 68 69 70 76 83 85 88 92 94 97 95 93 93 91 86 84 83 80 80 80 80 83
61 63 64 61 65 75 76 75 79 79 80 85 87 87 86 87 88 88 88 88 89 89 89 91 92 90 88 86 83 81 79 78 78 76 77 77 77 78 78 76 75 74 73 73 73 74 73 72 71 71 71 71 70 67 65 64 65 68 69 69 68 69 72 71 72 73 76 82 88 92 95 96 97 97 96 94 94 90 85 86 84 81 83 84 83 83
58 57 58 56 60 70 75 75 76 77 82 87 87 85 84 86 88 89 89 87 87 86 87 89 89 88 88 87 86 84 81 79 79 78 78 79 79 78 79 78 77 75 73 72 72 71 70 70 71 71 72 73 72 70 68 67 69 71 72 72 72 73 75 77 79 83 85 87 91 97 99 98 97 96 95 96 96 91 88 87 84 82 86 86 83 84
54 52 52 51 55 66 72 71 74 80 84 84 83 81 79 80 82 83 84 84 82 82 83 85 87 89 90 89 87 86 84 82 81 81 80 80 80 79 79 78 77 76 75 73 72 70 70 69 70 70 71 74 75 74 72 70 71 73 73 73 74 75 77 80 84 89 91 92 95 99 100 98 97 97 96 96 97 94 91 89 86 86 89 86 83 85
50 51 52 50 51 62 70 69 73 81 83 81 80 79 77 78 79 80 83 84 83 82 83 85 86 87 88 89 88 87 84 82 81 80 78 77 77 77 76 76 75 75 75 75 74 75 74 71 69 69 70 70 71 73 73 72 71 72 74 75 77 79 80 82 86 92 95 96 98 99 100 98 98 97 97 97 96 94 91 90 89 90 90 86 85 88
52 55 56 52 51 62 74 77 78 80 82 83 84 82 79 79 80 82 86 87 84 82 82 83 84 85 87 88 89 88 85 83 82 81 78 76 75 75 73 72 70 69 70 71 72 73 74 71 68 68 69 66 66 68 71 72 71 71 73 75 78 81 82 84 88 93 96 98 100 100 100 99 98 97 97 97 96 94 93 91 91 92 90 87 89 92
51 51 55 57 57 62 70 77 79 80 82 85 86 84 82 82 82 83 85 87 85 83 82 83 84 86 88 89 90 91 89 88 87 85 82 80 78 76 74 72 69 67 67 67 65 65 68 70 69 67 67 66 66 66 69 72 71 71 71 72 74 78 81 84 89 94 97 98 99 100 100 100 100 99 99 99 98 96 95 94 93 94 93 92 93 95
49 47 49 54 58 61 65 73 78 80 83 85 85 86 86 84 83 82 84 86 86 85 86 86 85 86 88 89 89 90 90 91 90 89 86 84 83 81 78 75 73 70 69 68 66 64 65 68 69 67 66 67 69 68 68 69 69 70 71 71 71 73 76 82 88 93 96 98 99 99 99 99 100 100 99 99 99 98 96 95 95 96 95 94 95 94
56 53 50 48 53 58 63 73 80 83 86 88 88 88 86 83 84 86 89 91 90 90 91 89 87 86 87 87 88 89 90 91 91 91 91 90 89 87 84 80 76 74 71 70 70 70 69 69 71 69 67 69 71 72 72 71 70 69 70 70 70 69 71 75 82 88 94 97 98 98 98 98 99 100 99 98 98 97 96 95 95 94 93 92 93 92
60 58 54 54 58 59 61 69 77 81 84 87 91 92 88 87 90 93 95 95 94 94 93 91 89 89 88 88 88 89 91 91 92 94 94 94 93 91 89 86 81 76 74 72 72 73 74 75 75 73 71 72 73 75 76 75 73 72 72 71 70 68 68 70 74 79 85 89 92 96 98 98 98 98 98 99 99 99 98 97 95 94 92 91 92 92
63 63 61 64 69 70 68 70 72 75 80 84 90 93 91 92 97 96 94 94 95 94 92 89 89 90 89 90 90 90 91 92 93 95 96 95 94 92 91 89 86 81 79 78 77 78 78 77 77 76 75 73 73 76 78 78 77 76 75 74 72 70 71 72 74 74 76 79 84 89 93 95 95 95 95 95 97 97 97 97 97 96 94 94 95 95
68 69 69 72 74 73 72 73 73 76 78 80 87 93 92 93 96 94 91 92 91 90 89 87 87 88 88 89 89 89 91 92 93 95 95 95 93 92 91 91 89 87 84 83 84 84 83 81 80 79 78 76 73 73 74 76 79 80 80 79 77 75 76 77 77 76 74 75 79 83 87 89 90 91 91 91 91 92 91 92 92 93 93 93 92 91
73 72 73 74 73 70 71 74 76 79 81 83 90 96 95 94 93 90 89 89 87 86 86 86 85 86 85 86 86 87 88 89 91 92 92 93 92 90 90 90 90 90 87 84 85 85 84 84 83 82 82 80 78 76 73 74 77 80 81 82 82 82 81 79 78 77 76 77 80 83 85 88 89 89 90 89 90 91 91 92 91 91 91 91 90 89
76 71 68 70 72 72 75 77 77 78 82 88 94 96 95 93 91 88 86 83 80 79 78 77 78 78 77 79 81 83 84 85 85 85 85 86 87 88 89 90 89 88 87 85 84 83 82 82 83 83 83 83 83 82 80 78 78 80 81 82 83 85 86 84 82 80 80 82 84 85 86 88 89 90 88 88 89 91 93 93 92 91 91 90 89 90
75 69 65 67 72 75 79 83 83 81 82 88 93 94 92 89 85 81 78 74 69 66 64 63 63 63 64 67 71 74 77 80 82 84 84 84 85 87 90 93 93 91 90 88 86 84 83 83 83 84 84 84 85 85 83 82 83 85 87 86 85 85 86 87 87 87 87 88 90 90 88 88 88 88 88 88 90 92 92 91 91 91 90 88 88 88
75 71 70 70 72 78 87 93 93 89 87 86 86 83 78 74 71 68 67 65 62 60 59 59 60 61 62 65 67 69 71 73 76 80 83 85 86 87 89 91 92 92 91 90 88 86 85 86 87 87 87 87 87 87 85 84 84 86 89 91 91 89 88 87 87 89 91 92 92 93 94 93 92 91 90 89 90 91 91 90 90 91 90 88 87 87
78 78 77 75 76 84 92 92 85 79 76 73 72 71 66 63 62 61 60 59 58 57 57 57 58 60 62 64 66 68 70 70 71 72 73 76 79 83 87 89 90 90 90 89 89 88 88 88 89 89 89 89 89 89 89 89 87 86 88 91 93 94 93 91 89 89 90 91 91 93 94 94 93 93 92 91 90 90 89 88 87 88 89 88 86 86
78 79 76 71 72 79 81 74 65 61 61 60 59 59 57 55 54 52 51 51 50 50 50 52 53 54 54 56 57 56 57 59 61 62 64 66 69 74 78 82 85 88 89 89 90 90 89 90 90 91 90 90 89 89 89 90 90 90 90 91 93 94 95 94 91 89 89 90 90 91 91 91 91 92 92 91 90 89 87 85 84 83 83 83 83 84
65 67 64 61 65 71 69 62 56 53 55 54 50 46 44 42 40 38 37 36 35 35 35 37 40 42 42 43 43 42 42 44 44 45 48 53 56 60 63 67 74 80 84 87 88 89 90 90 91 91 90 90 89 89 88 88 90 92 92 91 91 92 93 92 90 88 87 87 88 88 88 88 88 88 89 89 90 89 88 86 84 83 82 80 80 80
52 51 49 48 53 57 57 54 48 42 43 46 45 43 41 38 34 32 30 28 28 28 27 28 29 29 30 30 30 30 31 33 33 32 33 36 39 42 46 51 59 69 76 80 83 85 87 88 89 90 90 88 88 88 88 88 89 90 90 89 88 88 88 88 87 85 85 85 84 85 87 87 86 86 85 85 86 87 87 87 85 84 83 82 81 80